Miscellaneous Local Product
Issued by NWS North Platte, NE

Home | Current Version | Previous Version | Text Only | Print | Product List | Glossary On
Versions: 1 2 3 4 5 6 7 8 9 10 11 12 13 14 15 16 17 18 19 20 21 22 23 24 25 26 27 28 29 30 31 32 33 34 35 36 37 38 39 40 41 42 43 44 45 46 47 48 49 50
000
AXUS43 KLBF 271610
MISLBF


WESTERN AND NORTH CENTRAL NEBRASKA HOURLY WEATHER ROUNDUP
NATIONAL WEATHER SERVICE NORTH PLATTE NE
1000 AM CST SAT DEC 27 2014

***STATIONS NOT REPORTING VARIABLES SUCH AS SKY/WEATHER OR
PRESSURE ARE PROVIDED BY THE NEBRASKA DEPARTMENT OF
ROADS...RAWS...AND APRS NETWORKS...AND ARE NOT UNDER
NATIONAL WEATHER SERVICE QUALITY CONTROL***

...OBSERVATIONS IN AND NEAR THE EASTERN PANHANDLE OF NEBRASKA...

CITY           SKY/WX    TMP DP  RH WIND       PRES   REMARKS
PINE RIDGE     SUNNY     15  10  80 W6        30.14R WCI   6
CHADRON        SUNNY      8   5  87 W6        30.17R WCI  -2
ALLIANCE       SUNNY      6   2  83 W9        30.14R WCI  -8
SIDNEY         MOSUNNY   10   2  69 NW14      30.16R WCI  -6
WHITECLAY        N/A     15   8  72 SE5         N/A  WCI   8
CRESCENT LAKE    N/A     10   4  77 W6          N/A  WCI   0
LISCO            N/A      6  -1  72 CALM        N/A
BIG SPRINGS      N/A      7   3  84 SW9         N/A  WCI  -6
$$

...OBSERVATIONS IN NORTH CENTRAL NEBRASKA...

CITY           SKY/WX    TMP DP  RH WIND       PRES   REMARKS
VALENTINE      SUNNY      9   5  84 SW6       30.18R WCI  -1
THEDFORD       MOSUNNY   13   9  86 W6        30.19R WCI   4
AINSWORTH      SUNNY     11   7  84 W9        30.18R WCI  -1
O`NEILL        MOSUNNY    8   7  93 CALM      30.21R
ORD            SUNNY     14   9  80 W7        30.24R WCI   4
BROKEN BOW     MOSUNNY   11   8  88 SW5       30.23R WCI   3
BROWNLEE         N/A     10   5  82 W8          N/A  WCI  -3
SPRINGVIEW       N/A     11   8  86 MISG        N/A
BREWSTER         N/A     12   9  89 CALM        N/A
ROSE             N/A     20  17  88 SW3         N/A
SARGENT          N/A     12   9  89 W3          N/A
COMSTOCK         N/A     18  12  79 W6          N/A  WCI  10
CHAMBERS         N/A     17   9  71 NE5         N/A  WCI  10
EWING            N/A     13  11  91 CALM        N/A
$$

...OBSERVATIONS IN SOUTHWEST NEBRASKA AND FAR NORTHEAST COLORADO...

CITY           SKY/WX    TMP DP  RH WIND       PRES   REMARKS
WRAY           FAIR      11   7  84 W7        30.24R WCI   0
HOLYOKE        FAIR      12   5  73 SW6       30.21R WCI   3
IMPERIAL       SUNNY      7   2  80 W8        30.24R WCI  -6
OGALLALA       MOSUNNY    6   4  89 SW8       30.23R WCI  -6
NORTH PLATTE   MOSUNNY    3   0  87 SE3       30.25R FOG
MCCOOK         CLOUDY    15  10  80 W8        30.27S WCI   4
LEXINGTON      MOSUNNY   13  11  90 W9        30.27R WCI   1
PAXTON           N/A     11   8  89 SW6         N/A  WCI   2
BRADY            N/A      9   6  87 CALM        N/A
GOTHENBURG       N/A     16  11  81 W3          N/A
CALLAWAY         N/A     11   9  91 CALM        N/A
$$

...NORTH PLATTE AREA...

CITY           SKY/WX    TMP DP  RH WIND       PRES   REMARKS
AIRPORT        MOSUNNY    3   0  87 SE3       30.25R FOG
DOWNTOWN         N/A     13  10  88 CALM        N/A
$$

...SOME WEATHER OBSERVATIONS FROM AROUND THE REGION...

CITY           SKY/WX    TMP DP  RH WIND       PRES   REMARKS
DENVER         MOSUNNY   13   5  70 SW16      30.15R WCI  -3
LARAMIE        MOSUNNY   -1  -4  87 SW20      30.03S WCI -23
CHEYENNE       SUNNY     14   1  56 W18       30.07R WCI  -3
SCOTTSBLUFF    MOSUNNY    4   0  83 NW8       30.18R WCI  -9
RAPID CITY     MOSUNNY   12   6  77 CALM      30.10F
PIERRE         SUNNY      9   6  88 SW8       30.16R WCI  -3
WINNER         FAIR      16   8  71 SW9       30.18R WCI   4
SIOUX FALLS    SUNNY     12   8  84 W9        30.19R WCI   0
OMAHA          PTSUNNY   22  17  81 W8        30.28R WCI  12
GRAND ISLAND   SUNNY     13   8  81 W9        30.26S WCI   1
KANSAS CITY    CLOUDY    29  24  82 NW12      30.24R WCI  19
WICHITA        PTSUNNY   28  16  60 N17       30.32R WCI  16
HAYS           SUNNY     18   7  62 NW13      30.30R WCI   4
LIBERAL        MOSUNNY   19  12  73 NW12      30.33R WCI   7
GOODLAND       SUNNY     14   9  80 W15       30.24R WCI  -1
$$



USA.gov is the U.S. government's official web portal to all federal, state and local government web resources and services.